星链-2640 (STARLINK-2640 )

导读 | 豆包AI

STARLINK-2640是美国太空探索技术公司(SpaceX)星链(Starlink)星座中的低轨通信卫星,于2021年5月9日发射入轨。它属于星链卫星互联网项目,旨在为全球尤其是偏远地区提供高速低延迟的宽带互联网接入服务。卫星采用平板设计,搭载霍尔推进器,具备自主避撞能力,设计寿命约5-7年,退役后会主动离轨再入大气层烧毁,减少空间碎片威胁。

基本信息
目录编号:
48438
目录名称:
STARLINK-2640
国际标识:
2021-040L
轨道中心:
EARTH
卫星名称:
星链-2640
卫星全名:
星链-2640 (STARLINK-2640 )
卫星状态:
在轨 (已飞行1770 天)
发射日期:
2021-05-09 UTC
国别 :
美国 (US)
星等 :
--
轨道信息
数据来源 国际轨道数据
星历时间: 2026-03-13T23:35:50+0800
1天前
查看轨道信息
半长轴: 6853.334km
偏心率: 0.0001391
轨道倾角: 53.161°
近地点辐角 93.297°
升交点赤经 159.742°
平近点角 266.819°
近地点: 474.243km
远地点: 476.151km
周期: 94.105分钟
每日圈数: 15.302062
详细信息
固有亮度:
5
最大亮度:
2.5
卫星平台:
Starlink V1.0
覆盖范围:
全球
运营商:
太空探索技术公司
运营商所在国:
美国
制造商(研发单位):
太空探索技术公司
制造商所在国:
美国
使用方式:
暂无
卫星简介
星链(Starlink)计划是由太空探索技术公司(SpaceX)提出的一个巨型低轨卫星互联网星座项目,计划在2019年至2024年间在太空搭建由约1.2万颗卫星组成的“星链”网络,其中1584颗将部署在地球上空550千米处的近地轨道,并从2020年开始工作。该卫星仍在工作。
2D轨道图
3D轨道图
轨道高度分析图
轨道倾角分析图
轨道综合分析图
查看轨道综合分析图